Showing default

ISTSAT-1, 60238

Orbit data source: Space-Track

ISTSAT-1, 60238 is a Portuguese payload satellite in LEO that was launched on Tue, 09 Jul 2024 UTC via an ARIANE 62 launch vehicle from the French Guiana (FRGUI). Payload-class satellites include a variety of spacecraft equipped with specific instruments for various scientific and technological missions. These include communications satellites like Starlink; space stations such as the ISS; scientific satellites like the Hubble; Earth observation satellites from companies like Planet Labs, Umbra, and HawkEye 360; GPS; miniature CubeSats for education and research; and military/defense satellites.

Loading next visibility...
Identifier
60238, 2024-128D
Orbit
LEO
Country
Flag of PTPT / POR
Related business
Manufacturer
ISTL
Mission
Operational Amateur Technology
Bus & Motor
CUBESAT 1U, Unknown motor
Mass
1 kg wet, 1 kg dry
Launch date (UTC)
2024-07-09 (1 year ago)
Launch vehicle
ARIANE 62
Launch site
French Guiana (FRGUI)
Object type
Payload
Rocket body
Debris
Shape & HBR
Box, 0.1 m
Radar Cross Section
0.015 m², Small (<0.1 m²)

Expand to show TLE details & history
Last TLE update: 18 hours ago

TLE from 18 hours ago
0 ISTSAT-1
1 60238U 24128D   25309.27251602  .00008078  00000-0  52281-3 0  9994
2 60238  61.9892 275.7120 0055238  87.5760 273.1655 15.07654641 72654
Epoch: 2025-11-05T06:32Z
TLE epoch observation values (Epoch: 2025-11-05T06:32:25.384Z)
Latitude
-0.00008°
Longitude
132.85863°
Altitude
543.243 km
Speed
7.592 km/s
True Right ascension
18h 22m 50s
True Declination
0° 00' 00"
Sunlit
Object was in daylight at epoch
Visualization orbit readout
Latitude
Unknown
Longitude
Unknown
Altitude
Unknown
Speed
Unknown
Apparent Right ascension
Unknown
Apparent Declination
Unknown
Sunlit
N/A
Visualization observer readout
Local Sidereal Time
20:59:51
Azimuth
Unknown
Elevation
Unknown
Doppler factor
Unknown
Orbital elements
Apogee altitude
580.524 km
Perigee altitude
504.07 km
Semi-major axis
6,920.434 km
Eccentricity
0.00552
Inclination
61.9892°
RAAN
275.712°
Arg. of periapsis
87.576°
True anomaly
272.53326°
Mean anomaly
273.1655°
Eccentric anomaly
272.8494°
Mean motion
3.77002 °/min
Orbital period
95.49 mins
BSTAR
0.00052281
Loading maneuver chart data...
Computing Atmospheric mass density...
Loading historical data...
Loading historical data...
Loading historical data...
Loading historical data...
Loading historical data...
Loading historical data...
Loading historical data...

Documentation

Showing up to 5 results
|